Simultaneous Nadir Overpasses (SNOs) Predictions

Prediction of SNOs between AURA and NPP Satellite Orbit:

Table of predicted SNOs for the next 14.0 days since TLE Epoch: 11/26/2022
Index Date (AURA) Time (AURA) Lat,Lon (AURA) SZA (AURA ) Date (NPP) Time (NPP) Lat,Lon (NPP) SZA (NPP ) Distance(km) Time Diff (sec)
1 11/28/2022 03:42:19 79.43, 21.06 112.81 11/28/2022 03:42:13 79.43, 21.08 112.81 0.30 6
2 11/28/2022 04:31:39 -79.70,-169.39 67.56 11/28/2022 04:32:50 -79.70,-169.30 67.63 2.00 71
3 11/30/2022 19:09:32 -79.24, -31.98 66.47 11/30/2022 19:08:27 -79.24, -31.94 66.43 0.76 65
4 11/30/2022 19:58:53 79.43, 136.93 113.29 11/30/2022 19:59:06 79.42, 136.78 113.31 3.09 13
5 12/03/2022 11:26:05 -79.26, 84.03 66.06 12/03/2022 11:25:19 -79.26, 84.02 66.02 0.28 46
6 12/03/2022 12:15:22 79.60,-106.02 113.50 12/03/2022 12:15:53 79.61,-105.89 113.45 2.58 31
7 12/06/2022 03:42:35 -79.38,-159.33 65.82 12/06/2022 03:42:08 -79.38,-159.26 65.82 1.70 27
8 12/06/2022 04:31:56 79.56, 9.58 113.94 12/06/2022 04:32:47 79.56, 9.48 113.92 1.94 51
9 12/08/2022 19:59:06 -79.40, -43.33 65.51 12/08/2022 19:58:59 -79.40, -43.34 65.50 0.33 7



Historial Predications of SNOs between AURA and NPP
